1531180800.13,49073,19.19,74130.8,1.17,-6.43,-6.27,0,*71
1531180801.38,49074,19.19,74132.0,1.21,-6.51,-6.27,0,*70
1531180802.62,49075,19.19,74132.8,1.21,-6.51,-6.27,0,*71
1531180803.83,49076,19.19,74130.8,1.17,-6.69,-6.43,0,*7E
1531180805.07,49077,19.19,74132.5,1.21,-6.63,-6.39,0,*7D
1531180806.3,49078,19.19,74134.5,1.21,-6.63,-6.47,0,*7B
1531180807.54,49079,19.19,74130.0,1.21,-6.51,-6.23,0,*79
1531180808.79,49080,19.19,74128.5,1.17,-6.43,-6.19,0,*70
1531180810.01,49081,19.19,74132.0,1.21,-6.35,-6.13,0,*7F
1531180811.22,49082,19.19,74130.3,1.21,-6.39,-6.05,0,*77
1531180812.45,49083,19.19,74130.5,1.21,-6.27,-6.05,0,*79
1531180813.67,49084,19.19,74130.8,1.23,-6.23,-6.01,0,*7C
1531180814.88,49085,19.19,74130.0,1.23,-6.23,-6.01,0,*7D
1531180816.1,49086,19.19,74134.3,1.21,-6.47,-6.13,0,*7D
1531180817.33,49087,19.19,74130.8,1.17,-6.63,-6.35,0,*7B
1531180818.58,49088,19.19,74134.3,1.17,-6.43,-6.27,0,*75
1531180819.82,49089,19.19,74134.0,1.21,-6.47,-6.27,0,*75
1531180821.03,49090,19.19,74132.5,1.21,-6.39,-6.13,0,*73
1531180822.24,49091,19.19,74130.3,1.21,-6.47,-6.35,0,*7F
1531180823.49,49092,19.19,74128.3,1.21,-6.51,-6.27,0,*78
1531180824.72,49093,19.19,74134.8,1.21,-6.27,-6.05,0,*78
1531180825.93,49094,19.19,74128.8,1.21,-6.39,-6.09,0,*7C
1531180827.14,49095,19.19,74132.5,1.21,-6.39,-6.13,0,*76
1531180828.38,49096,19.19,74134.3,1.21,-6.47,-6.27,0,*7B
1531180829.6,49097,19.19,74130.8,1.21,-6.35,-6.13,0,*78
1531180830.81,49098,19.19,74134.8,1.21,-6.39,-6.13,0,*7B
1531180832.05,49099,19.19,74134.5,1.17,-6.51,-6.27,0,*76
1531180833.3,49100,19.19,74132.0,1.17,-6.51,-6.27,0,*77
1531180834.51,49101,19.19,74132.0,1.21,-6.47,-6.13,0,*73
1531180835.75,49102,19.19,74130.8,1.21,-6.47,-6.23,0,*73
1531180836.96,49103,19.19,74130.3,1.21,-6.47,-6.13,0,*71
1531180838.15,49104,19.19,74134.8,1.23,-6.31,-6.05,0,*72
1531180839.36,49105,19.19,74134.0,1.21,-6.39,-6.13,0,*7E
1531180840.6,49106,19.19,74132.0,1.17,-6.63,-6.31,0,*77
1531180841.85,49107,19.19,74132.8,1.17,-6.55,-6.27,0,*74
1531180843.09,49108,19.19,74132.8,1.17,-6.39,-6.19,0,*7C
1531180844.31,49109,19.19,74134.8,1.21,-6.59,-6.35,0,*70
1531180845.55,49110,19.19,74132.8,1.21,-6.51,-6.27,0,*73
1531180846.78,49111,19.19,74132.5,1.21,-6.51,-6.35,0,*71
1531180848.0,49112,19.19,74132.3,1.17,-6.55,-6.31,0,*77
1531180849.21,49113,19.19,74134.8,1.17,-6.43,-6.13,0,*71
1531180850.45,49114,19.19,74134.3,1.21,-6.39,-6.23,0,*7D
1531180851.67,49115,19.19,74134.3,1.21,-6.59,-6.35,0,*7D
1531180852.91,49116,19.19,74132.3,1.21,-6.59,-6.27,0,*7D
1531180854.15,49117,19.19,74130.8,1.17,-6.63,-6.31,0,*77
1531180855.38,49118,19.19,74134.3,1.21,-6.27,-5.97,0,*72
1531180856.62,49119,19.19,74132.5,1.21,-6.23,-5.97,0,*77
1531180857.86,49120,19.19,74130.0,1.21,-6.39,-6.27,0,*7E
1531180859.1,49121,19.19,74134.5,1.17,-6.43,-6.19,0,*7A
1531180860.32,49122,19.19,74134.3,1.17,-6.31,-5.97,0,*79
1531180861.53,49123,19.19,74134.3,1.17,-6.39,-6.13,0,*7F
1531180862.77,49124,19.19,74132.3,1.21,-6.27,-6.05,0,*75
1531180863.98,49125,19.19,74130.5,1.17,-6.31,-6.01,0,*72
1531180865.2,49126,19.19,74132.3,1.21,-6.35,-6.09,0,*78
1531180866.42,49127,19.19,74134.8,1.21,-6.35,-6.09,0,*79
1531180867.65,49128,19.19,74134.8,1.21,-6.27,-5.97,0,*71
1531180868.87,49129,19.19,74128.5,1.21,-6.35,-6.09,0,*77
1531180870.08,49130,19.19,74134.3,1.21,-6.35,-6.09,0,*7F
1531180871.36,49131,19.19,74130.8,1.17,-6.19,-5.89,0,*7E
1531180872.62,49132,19.19,74130.8,1.21,-6.23,-5.93,0,*7A
1531180873.87,49133,19.19,74130.8,1.17,-6.19,-5.97,0,*73
1531180875.1,49134,19.19,74134.5,1.17,-6.27,-6.01,0,*75
1531180876.34,49135,19.19,74128.0,1.25,-6.01,-5.69,0,*7C
1531180877.58,49136,19.19,74132.5,1.21,-6.05,-5.69,0,*7F
1531180878.85,49137,19.19,74132.8,1.21,-5.89,-5.65,0,*75
1531180880.1,49138,19.19,74132.0,1.23,-5.89,-5.65,0,*78
1531180881.32,49139,19.19,74132.8,1.23,-5.89,-5.55,0,*7A
1531180882.57,49140,19.19,74132.0,1.25,-5.89,-5.51,0,*76
1531180883.84,49141,19.19,74130.5,1.25,-6.19,-5.89,0,*78
1531180885.08,49142,19.19,74134.3,1.25,-6.19,-6.05,0,*7C
1531180886.33,49143,19.19,74130.5,1.23,-6.19,-5.93,0,*77
1531180887.59,49144,19.19,74130.0,1.25,-6.23,-5.93,0,*7F
1531180888.8,49145,19.19,74130.0,1.25,-6.31,-6.05,0,*71
1531180890.05,49146,19.19,74128.5,1.23,-6.23,-5.93,0,*7B
1531180891.32,49147,19.19,74130.5,1.25,-6.23,-5.89,0,*77
1531180892.59,49148,19.19,74130.8,1.25,-6.19,-5.89,0,*71
1531180893.84,49149,19.19,74130.3,1.23,-6.19,-5.93,0,*7D
1531180895.07,49150,19.19,74130.0,1.25,-6.23,-6.01,0,*72
1531180896.34,49151,19.19,74130.0,1.25,-6.23,-5.89,0,*70
1531180897.57,49152,19.19,74130.8,1.25,-6.23,-6.05,0,*74
1531180898.79,49153,19.19,74130.0,1.25,-6.31,-6.09,0,*7A
1531180900.03,49154,19.19,74130.0,1.25,-6.43,-6.19,0,*79
1531180901.28,49155,19.19,74128.5,1.25,-6.35,-6.19,0,*79
1531180902.49,49156,19.19,74130.8,1.25,-6.31,-6.05,0,*73
1531180903.68,49157,19.19,74130.3,1.23,-6.35,-6.05,0,*70
1531180904.9,49158,19.19,74132.0,1.25,-6.35,-6.05,0,*79
1531180906.14,49159,19.19,74130.0,1.25,-6.43,-6.19,0,*74
1531180907.39,49160,19.19,74130.3,1.25,-6.43,-6.19,0,*7E
1531180908.63,49161,19.19,74132.0,1.25,-6.43,-6.19,0,*7F
1531180909.85,49162,19.19,74130.3,1.25,-6.35,-6.05,0,*70
1531180911.09,49163,19.19,74130.3,1.23,-6.19,-5.81,0,*76
1531180912.31,49164,19.19,74130.3,1.25,-6.31,-6.05,0,*72
1531180913.5,49165,19.19,74128.5,1.23,-6.43,-6.09,0,*7C
1531180914.7,49166,19.19,74132.3,1.23,-6.55,-6.31,0,*73
1531180915.91,49167,19.19,74128.3,1.25,-6.43,-6.09,0,*78
1531180917.12,49168,19.19,74130.0,1.25,-6.43,-6.09,0,*77
1531180918.37,49169,19.19,74130.8,1.25,-6.43,-6.19,0,*77
1531180919.59,49170,19.19,74134.5,1.23,-6.43,-6.23,0,*70
1531180920.8,49171,19.19,74130.3,1.23,-6.43,-6.23,0,*71
1531180922.02,49172,19.19,74130.5,1.23,-6.55,-6.23,0,*75
1531180923.23,49173,19.19,74128.0,1.25,-6.47,-6.05,0,*75
1531180924.46,49174,19.19,74130.0,1.23,-6.35,-6.19,0,*7C
1531180925.66,49175,19.19,74132.5,1.23,-6.59,-6.31,0,*7D
1531180926.85,49176,19.19,74128.0,1.23,-6.43,-6.09,0,*7E
1531180928.06,49177,19.19,74130.8,1.23,-6.47,-6.23,0,*73
1531180929.26,49178,19.19,74128.3,1.23,-6.55,-6.31,0,*7C
1531180930.47,49179,19.19,74128.0,1.23,-6.59,-6.31,0,*71
1531180931.66,49180,19.19,74128.5,1.23,-6.47,-6.31,0,*78
1531180932.88,49181,19.19,74130.8,1.21,-6.59,-6.35,0,*70
1531180934.12,49182,19.19,74128.3,1.21,-6.47,-6.23,0,*7B
1531180935.33,49183,19.19,74130.3,1.21,-6.39,-6.13,0,*70
1531180936.57,49184,19.19,74126.0,1.21,-6.13,-5.81,0,*77
1531180937.84,49185,19.19,74130.8,1.21,-6.23,-5.85,0,*71
1531180939.03,49186,19.19,74130.0,1.23,-6.31,-6.05,0,*78
1531180940.23,49187,19.19,74130.3,1.23,-6.35,-6.05,0,*7D
1531180941.45,49188,19.19,74130.3,1.23,-6.43,-6.19,0,*7E
1531180942.67,49189,19.19,74128.5,1.25,-6.35,-6.09,0,*79
1531180943.88,49190,19.19,74130.3,1.23,-6.23,-6.01,0,*78
1531180945.1,49191,19.19,74124.0,1.23,-6.09,-5.77,0,*73
1531180946.35,49192,19.19,74128.5,1.23,-6.19,-5.81,0,*78
1531180947.57,49193,19.19,74130.8,1.25,-6.31,-6.01,0,*7E
1531180948.79,49194,19.19,74130.0,1.23,-6.43,-6.19,0,*73
1531180950.03,49195,19.19,74130.5,1.21,-6.51,-6.23,0,*7A
1531180951.25,49196,19.19,74128.8,1.23,-6.47,-6.23,0,*7C
1531180952.47,49197,19.19,74128.3,1.23,-6.35,-6.19,0,*71
1531180953.69,49198,19.19,74130.0,1.23,-6.47,-6.23,0,*72
1531180954.91,49199,19.19,74128.0,1.23,-6.47,-6.19,0,*7A
1531180956.15,49200,19.19,74130.5,1.21,-6.51,-6.27,0,*71
1531180957.38,49201,19.19,74128.5,1.17,-6.55,-6.31,0,*76
1531180958.62,49202,19.19,74128.3,1.21,-6.51,-6.27,0,*73
1531180959.86,49203,19.19,74130.8,1.21,-6.63,-6.35,0,*70
1531180961.09,49204,19.19,74128.5,1.21,-6.63,-6.35,0,*77
1531180962.32,49205,19.19,74130.3,1.17,-6.55,-6.31,0,*72
1531180963.53,49206,19.19,74132.3,1.21,-6.39,-6.09,0,*75
1531180964.76,49207,19.19,74126.8,1.21,-6.47,-6.23,0,*75
1531180965.98,49208,19.19,74132.0,1.21,-6.59,-6.35,0,*72
1531180967.19,49209,19.19,74128.3,1.21,-6.47,-6.13,0,*78
1531180968.44,49210,19.19,74130.0,1.17,-6.43,-6.19,0,*7B
1531180969.66,49211,19.19,74124.8,1.21,-6.35,-6.05,0,*73
1531180970.87,49212,19.19,74130.0,1.17,-6.39,-6.09,0,*75
1531180972.11,49213,19.19,74128.8,1.21,-6.47,-6.27,0,*74
1531180973.3,49214,19.19,74130.8,1.23,-6.47,-6.09,0,*7D
1531180974.55,49215,19.19,74130.3,1.17,-6.51,-6.27,0,*70
1531180975.76,49216,19.19,74130.5,1.17,-6.43,-6.13,0,*77
1531180976.99,49217,19.19,74126.8,1.21,-6.27,-6.09,0,*7A
1531180978.21,49218,19.19,74128.0,1.21,-6.47,-6.13,0,*78
1531180979.46,49219,19.19,74126.0,1.17,-6.51,-6.19,0,*71
1531180980.68,49220,19.19,74128.5,1.21,-6.51,-6.35,0,*70
1531180981.93,49221,19.19,74134.0,1.17,-6.51,-6.27,0,*77
1531180983.15,49222,19.19,74128.3,1.17,-6.55,-6.31,0,*77
1531180984.38,49223,19.19,74130.3,1.17,-6.63,-6.39,0,*7B
1531180985.6,49224,19.19,74128.8,1.21,-6.73,-6.39,0,*78
1531180986.81,49225,19.19,74126.8,1.21,-6.51,-6.13,0,*71
1531180988.04,49226,19.19,74130.5,1.17,-6.55,-6.31,0,*73
1531180989.28,49227,19.19,74128.0,1.17,-6.51,-6.27,0,*71
1531180990.53,49228,19.19,74130.5,1.17,-6.51,-6.19,0,*73
1531180991.78,49229,19.19,74130.3,1.17,-6.51,-6.27,0,*7F
1531180993.02,49230,19.13,74124.3,1.21,-6.51,-6.23,0,*76
1531180994.27,49231,19.19,74128.8,1.17,-6.51,-6.19,0,*7B
1531180995.48,49232,19.19,74128.3,1.21,-6.47,-6.13,0,*70
1531180996.73,49233,19.19,74130.8,1.17,-6.55,-6.19,0,*7D
1531180997.95,49234,19.19,74128.0,1.17,-6.31,-6.01,0,*71
1531180999.16,49235,19.19,74126.0,1.17,-6.39,-6.09,0,*70
1531181000.37,49236,19.19,74128.0,1.17,-6.31,-5.97,0,*7F
1531181001.61,49237,19.19,74130.8,1.17,-6.27,-5.97,0,*79
1531181002.83,49238,19.19,74126.3,1.17,-6.55,-6.31,0,*7C
1531181004.1,49239,19.19,74128.0,1.17,-6.63,-6.27,0,*7F
1531181005.34,49240,19.19,74124.8,1.21,-6.59,-6.27,0,*7D
1531181006.58,49241,19.19,74130.0,1.17,-6.55,-6.27,0,*75
1531181007.79,49242,19.19,74126.8,1.17,-6.69,-6.39,0,*76
1531181009.01,49243,19.19,74132.0,1.17,-6.31,-6.09,0,*79
1531181010.25,49244,19.19,74126.3,1.17,-6.39,-6.19,0,*77
1531181011.44,49245,19.19,74130.5,1.15,-6.39,-6.09,0,*75
1531181012.66,49246,19.19,74128.3,1.17,-6.31,-6.01,0,*74
1531181013.91,49247,19.19,74130.5,1.17,-6.43,-6.19,0,*79
1531181015.12,49248,19.19,74124.3,1.17,-6.31,-5.97,0,*76
1531181016.34,49249,19.19,74124.3,1.17,-6.43,-6.13,0,*7D
1531181017.55,49250,19.19,74126.5,1.17,-6.43,-6.13,0,*75
1531181018.8,49251,19.19,74124.5,1.17,-6.39,-6.19,0,*73
1531181020.04,49252,19.19,74124.8,1.17,-6.51,-6.27,0,*73
1531181021.28,49253,19.19,74128.5,1.17,-6.63,-6.39,0,*7C
1531181022.49,49254,19.19,74126.5,1.17,-6.69,-6.39,0,*71
1531181023.71,49255,19.19,74130.8,1.15,-6.63,-6.31,0,*70
1531181024.92,49256,19.19,74130.3,1.17,-6.69,-6.39,0,*73
1531181026.15,49257,19.19,74124.0,1.17,-6.51,-6.31,0,*71
1531181027.39,49258,19.19,74126.0,1.15,-6.63,-6.27,0,*7A
1531181028.62,49259,19.19,74126.5,1.15,-6.51,-6.27,0,*7A
1531181029.83,49260,19.13,74122.8,1.15,-6.51,-6.31,0,*77
1531181031.07,49261,19.19,74126.8,1.17,-6.51,-6.27,0,*73
1531181032.3,49262,19.19,74124.5,1.13,-6.59,-6.35,0,*7F
1531181033.52,49263,19.19,74126.3,1.13,-6.69,-6.43,0,*7C
1531181034.74,49264,19.19,74128.5,1.15,-6.55,-6.27,0,*70
1531181035.96,49265,19.19,74126.5,1.13,-6.69,-6.31,0,*7F
1531181037.18,49266,19.19,74128.5,1.15,-6.39,-6.27,0,*78
1531181038.41,49267,19.19,74126.0,1.15,-6.55,-6.19,0,*7E
1531181039.64,49268,19.13,74130.3,1.15,-6.55,-6.19,0,*71
1531181040.89,49269,19.19,74128.0,1.13,-6.47,-6.19,0,*75
1531181042.11,49270,19.19,74124.8,1.15,-6.43,-6.19,0,*7F
1531181043.31,49271,19.19,74126.5,1.15,-6.39,-6.13,0,*79
1531181044.53,49272,19.19,74126.3,1.15,-6.43,-6.27,0,*70
1531181045.73,49273,19.19,74126.0,1.15,-6.69,-6.31,0,*7E
1531181046.95,49274,19.19,74124.5,1.13,-6.59,-6.35,0,*78
1531181048.15,49275,19.19,74126.5,1.15,-6.39,-6.13,0,*7D
1531181049.38,49276,19.19,74126.5,1.15,-6.51,-6.27,0,*77
1531181050.6,49277,19.19,74126.3,1.15,-6.63,-6.31,0,*70
1531181051.8,49278,19.19,74128.3,1.15,-6.55,-6.31,0,*7A
1531181053.03,49279,19.19,74126.5,1.15,-6.51,-6.19,0,*75
1531181054.26,49280,19.19,74126.8,1.13,-6.55,-6.43,0,*7E
1531181055.46,49281,19.19,74126.5,1.15,-6.55,-6.31,0,*7C
1531181056.69,49282,19.19,74126.3,1.15,-6.51,-6.19,0,*71
1531181057.89,49283,19.19,74124.3,1.15,-6.43,-6.13,0,*79
1531181059.11,49284,19.19,74128.5,1.13,-6.59,-6.43,0,*76
1531181060.34,49285,19.13,74124.5,1.15,-6.43,-6.19,0,*75
1531181061.59,49286,19.19,74124.3,1.13,-6.43,-6.19,0,*70
1531181062.81,49287,19.19,74126.8,1.13,-6.43,-6.13,0,*7B
1531181064.01,49288,19.19,74124.8,1.15,-6.31,-6.09,0,*7C
1531181065.2,49289,19.19,74126.5,1.15,-6.43,-6.13,0,*73
1531181066.4,49290,19.19,74126.0,1.15,-6.39,-6.09,0,*7D
1531181067.59,49291,19.19,74124.3,1.15,-6.31,-6.09,0,*74
1531181068.79,49292,19.19,74124.3,1.15,-6.39,-6.13,0,*74
1531181069.98,49293,19.19,74126.0,1.15,-6.31,-6.09,0,*76
1531181071.2,49294,19.19,74124.8,1.13,-6.47,-6.13,0,*7D
1531181072.43,49295,19.19,74124.5,1.13,-6.35,-6.01,0,*7A
1531181073.64,49296,19.19,74126.0,1.15,-6.27,-6.01,0,*7C
1531181074.87,49297,19.19,74126.3,1.15,-6.51,-6.27,0,*78
1531181076.12,49298,19.19,74126.5,1.13,-6.55,-6.19,0,*78
1531181077.32,49299,19.19,74126.0,1.15,-6.31,-6.01,0,*74
1531181078.51,49300,19.19,74126.5,1.15,-6.43,-6.09,0,*78
1531181079.74,49301,19.19,74124.5,1.15,-6.43,-6.27,0,*75
1531181080.96,49302,19.19,74130.5,1.15,-6.55,-6.23,0,*75
1531181082.16,49303,19.19,74124.3,1.15,-6.31,-6.01,0,*76
1531181083.4,49304,19.19,74130.0,1.15,-6.27,-5.89,0,*75
1531181084.63,49305,19.19,74124.0,1.13,-6.35,-6.05,0,*76
1531181085.82,49306,19.19,74126.3,1.15,-6.43,-6.09,0,*7E
1531181087.07,49307,19.19,74126.0,1.15,-6.27,-5.85,0,*7A
1531181088.31,49308,19.13,74122.8,1.17,-6.27,-6.01,0,*78
1531181089.52,49309,19.19,74124.3,1.17,-6.43,-6.13,0,*78
1531181090.77,49310,19.19,74128.5,1.15,-6.63,-6.27,0,*77
1531181091.99,49311,19.19,74128.5,1.15,-6.55,-6.27,0,*73
1531181093.22,49312,19.19,74124.5,1.15,-6.43,-6.19,0,*7A
1531181094.44,49313,19.19,74124.8,1.15,-6.55,-6.19,0,*7C
1531181095.66,49314,19.19,74124.5,1.13,-6.47,-6.13,0,*74
1531181096.89,49315,19.13,74122.0,1.13,-6.35,-6.05,0,*77
1531181098.13,49316,19.19,74124.8,1.13,-6.47,-6.19,0,*7C
1531181099.38,49317,19.19,74128.8,1.13,-6.47,-6.19,0,*7D
1531181100.6,49318,19.19,74126.0,1.13,-6.47,-6.13,0,*78
1531181101.85,49319,19.19,74126.8,1.17,-6.13,-5.85,0,*70
1531181103.1,49320,19.19,74126.0,1.15,-6.27,-5.89,0,*73
1531181104.31,49321,19.19,74126.8,1.17,-6.39,-6.09,0,*74
1531181105.54,49322,19.19,74126.0,1.15,-6.51,-6.19,0,*7A
1531181106.73,49323,19.19,74126.5,1.15,-6.39,-6.09,0,*74
1531181107.93,49324,19.19,74126.8,1.15,-6.43,-6.09,0,*7E
1531181109.15,49325,19.19,74124.3,1.13,-6.43,-6.05,0,*75
1531181110.36,49326,19.19,74126.8,1.17,-6.43,-6.13,0,*75
1531181111.59,49327,19.13,74120.3,1.15,-6.43,-6.27,0,*71
1531181112.82,49328,19.19,74124.8,1.15,-6.51,-6.19,0,*70
1531181114.02,49329,19.19,74124.0,1.15,-6.31,-6.01,0,*7E
1531181115.21,49330,19.19,74126.8,1.15,-6.31,-6.01,0,*76
1531181116.43,49331,19.19,74126.5,1.17,-6.31,-6.01,0,*75
1531181117.67,49332,19.19,74124.0,1.17,-6.27,-6.01,0,*71
1531181118.88,49333,19.19,74124.0,1.17,-6.43,-6.13,0,*71
1531181120.1,49334,19.19,74124.3,1.17,-6.43,-6.09,0,*7D
1531181121.3,49335,19.19,74124.3,1.15,-6.43,-6.13,0,*75
1531181122.52,49336,19.19,74124.3,1.13,-6.69,-6.31,0,*78
1531181123.71,49337,19.19,74124.8,1.15,-6.31,-6.09,0,*79
1531181124.96,49338,19.19,74122.8,1.15,-6.27,-5.85,0,*76
1531181126.16,49339,19.19,74124.3,1.15,-6.43,-6.09,0,*72
1531181127.36,49340,19.19,74124.8,1.15,-6.51,-6.13,0,*74
1531181128.55,49341,19.19,74126.5,1.15,-6.39,-6.01,0,*78
1531181129.75,49342,19.19,74124.3,1.15,-6.39,-6.09,0,*73
1531181130.94,49343,19.19,74124.0,1.15,-6.43,-6.01,0,*77
1531181132.14,49344,19.19,74124.8,1.15,-6.39,-6.01,0,*7D
1531181133.37,49345,19.19,74124.3,1.15,-6.51,-6.27,0,*76
1531181134.6,49346,19.19,74122.3,1.15,-6.51,-6.19,0,*78
1531181135.79,49347,19.19,74122.5,1.15,-6.39,-6.13,0,*7D
1531181137.02,49348,19.19,74128.0,1.15,-6.43,-6.19,0,*75
1531181138.24,49349,19.19,74124.3,1.15,-6.55,-6.27,0,*7E
1531181139.46,49350,19.19,74124.0,1.13,-6.43,-6.05,0,*77
1531181140.71,49351,19.19,74124.0,1.15,-6.27,-5.89,0,*75
1531181141.96,49352,19.19,74124.8,1.15,-6.27,-5.85,0,*7A
1531181143.18,49353,19.19,74126.5,1.13,-6.43,-6.13,0,*73
1531181144.37,49354,19.19,74124.0,1.15,-6.43,-6.13,0,*72
1531181145.6,49355,19.19,74124.0,1.15,-6.55,-6.19,0,*7E
1531181146.83,49356,19.19,74122.8,1.15,-6.55,-6.19,0,*7D
1531181148.03,49357,19.19,74124.0,1.15,-6.55,-6.31,0,*76
1531181149.27,49358,19.19,74126.5,1.13,-6.47,-6.23,0,*7F
1531181150.52,49359,19.19,74126.8,1.13,-6.55,-6.19,0,*74
1531181151.72,49360,19.19,74124.0,1.15,-6.39,-6.09,0,*73
1531181152.94,49361,19.19,74124.8,1.13,-6.43,-6.13,0,*72
1531181154.14,49362,19.19,74124.8,1.15,-6.43,-6.01,0,*74
1531181155.34,49363,19.19,74126.0,1.15,-6.51,-6.13,0,*75
1531181156.55,49364,19.19,74126.5,1.13,-6.47,-6.13,0,*73
1531181157.77,49365,19.19,74124.0,1.13,-6.43,-6.13,0,*76
1531181159.02,49366,19.19,74128.0,1.15,-6.63,-6.27,0,*76
1531181160.21,49367,19.19,74124.5,1.15,-6.43,-6.09,0,*79
1531181161.43,49368,19.19,74122.3,1.13,-6.43,-6.13,0,*7B
1531181162.65,49369,19.19,74124.3,1.13,-6.47,-6.13,0,*7E
1531181163.88,49370,19.19,74126.0,1.15,-6.43,-6.19,0,*7E
1531181165.1,49371,19.19,74126.5,1.13,-6.43,-6.13,0,*73
1531181166.35,49372,19.19,74126.8,1.13,-6.55,-6.19,0,*7D
1531181167.59,49373,19.19,74126.8,1.13,-6.59,-6.23,0,*79
1531181168.84,49374,19.13,74122.5,1.13,-6.59,-6.19,0,*77
1531181170.06,49375,19.19,74124.0,1.13,-6.47,-6.13,0,*73
1531181171.28,49376,19.19,74124.3,1.13,-6.43,-6.05,0,*73
1531181172.52,49377,19.19,74124.8,1.13,-6.59,-6.23,0,*7D
1531181173.74,49378,19.19,74124.3,1.13,-6.55,-6.05,0,*7A
1531181175.0,49379,19.19,74124.0,1.13,-6.35,-5.93,0,*71
1531181176.22,49380,19.19,74126.5,1.13,-6.43,-6.05,0,*7A
1531181177.47,49381,19.19,74124.3,1.13,-6.55,-6.19,0,*71
1531181178.69,49382,19.19,74126.5,1.13,-6.59,-6.31,0,*74
1531181179.92,49383,19.19,74126.3,1.13,-6.73,-6.43,0,*78
1531181181.14,49384,19.19,74126.3,1.13,-6.81,-6.43,0,*72
1531181182.37,49385,19.19,74124.0,1.13,-6.81,-6.43,0,*73
1531181183.57,49386,19.19,74124.0,1.11,-6.81,-6.43,0,*72
1531181184.76,49387,19.19,74124.8,1.11,-6.73,-6.35,0,*7F
1531181185.96,49388,19.19,74124.0,1.11,-6.73,-6.43,0,*71
1531181187.16,49389,19.19,74124.0,1.11,-6.73,-6.43,0,*70
1531181188.38,49390,19.19,74128.8,1.09,-6.89,-6.51,0,*77
1531181189.57,49391,19.19,74124.3,1.11,-6.69,-6.31,0,*77
1531181190.79,49392,19.19,74124.8,1.09,-6.85,-6.47,0,*7E
1531181191.99,49393,19.13,74120.3,1.11,-6.73,-6.47,0,*7F
1531181193.2,49394,19.19,74124.3,1.09,-6.73,-6.39,0,*78
1531181194.45,49395,19.19,74126.0,1.09,-6.59,-6.27,0,*7E
1531181195.67,49396,19.13,74122.5,1.11,-6.55,-6.19,0,*75
1531181196.89,49397,19.19,74124.5,1.09,-6.77,-6.39,0,*7F
1531181198.1,49398,19.19,74122.8,1.09,-6.73,-6.39,0,*74
1531181199.3,49399,19.19,74126.0,1.11,-6.73,-6.35,0,*70
1531181200.54,49400,19.19,74124.8,1.09,-6.63,-6.35,0,*7F
1531181201.8,49401,19.19,74122.8,1.09,-6.63,-6.19,0,*70
1531181203.07,49402,19.19,74124.8,1.09,-6.63,-6.27,0,*7E
1531181204.31,49403,19.19,74126.0,1.09,-6.59,-6.19,0,*7B
1531181205.53,49404,19.19,74126.5,1.09,-6.47,-6.09,0,*72
1531181206.74,49405,19.19,74124.3,1.09,-6.47,-6.09,0,*73
1531181207.99,49406,19.19,74124.3,1.09,-6.59,-6.19,0,*7E
1531181209.23,49407,19.19,74126.3,1.09,-6.39,-6.19,0,*79
1531181210.48,49408,19.19,74124.3,1.09,-6.51,-6.27,0,*75
1531181211.72,49409,19.19,74124.3,1.09,-6.51,-6.23,0,*70
1531181212.94,49410,19.19,74124.0,1.09,-6.39,-6.05,0,*72
1531181214.17,49411,19.19,74126.8,1.09,-6.27,-5.97,0,*74
1531181215.39,49412,19.19,74122.5,1.09,-6.47,-6.09,0,*75
1531181216.6,49413,19.19,74124.0,1.09,-6.73,-6.39,0,*70
1531181217.84,49414,19.19,74128.0,1.09,-6.63,-6.35,0,*7A
1531181219.06,49415,19.13,74122.3,1.09,-6.77,-6.39,0,*72
1531181220.29,49416,19.13,74120.5,1.07,-6.81,-6.43,0,*7B
1531181221.49,49417,19.13,74122.5,1.05,-6.77,-6.43,0,*71
1531181222.72,49418,19.13,74122.5,1.07,-6.81,-6.51,0,*76
1531181223.94,49419,19.13,74122.5,1.07,-6.89,-6.43,0,*7C
1531181225.16,49420,19.19,74124.3,1.07,-6.89,-6.51,0,*75
1531181226.39,49421,19.19,74126.0,1.07,-6.77,-6.31,0,*73
1531181227.59,49422,19.19,74124.3,1.05,-6.69,-6.31,0,*7D
1531181228.81,49423,19.19,74124.0,1.05,-6.63,-6.31,0,*76
1531181229.99,49424,19.19,74124.0,1.05,-6.69,-6.39,0,*73
1531181231.22,49425,19.19,74126.5,1.07,-6.81,-6.51,0,*78
1531181232.42,49426,19.19,74124.8,1.05,-6.89,-6.51,0,*71
1531181233.61,49427,19.19,74124.0,1.05,-6.89,-6.51,0,*70
1531181234.81,49428,19.19,74124.8,1.05,-6.89,-6.43,0,*7C
1531181236.03,49429,19.19,74124.8,1.05,-6.93,-6.55,0,*71
1531181237.28,49430,19.19,74124.3,1.03,-6.93,-6.55,0,*7F
1531181238.49,49431,19.19,74124.3,1.03,-6.73,-6.35,0,*76
1531181239.74,49432,19.19,74126.3,1.03,-6.55,-6.27,0,*72
1531181240.95,49433,19.13,74122.0,1.03,-6.47,-6.13,0,*77
1531181242.16,49434,19.19,74126.5,1.03,-6.47,-6.05,0,*77
1531181243.36,49435,19.19,74124.3,1.05,-6.51,-6.13,0,*70
1531181244.56,49436,19.19,74126.5,1.05,-6.77,-6.31,0,*77
1531181245.78,49437,19.19,74126.8,1.03,-6.59,-6.35,0,*78
1531181247.0,49438,19.13,74122.0,1.05,-6.55,-6.27,0,*7E
1531181248.21,49439,19.19,74126.5,1.05,-6.69,-6.27,0,*70
1531181249.46,49440,19.13,74120.8,1.07,-6.55,-6.23,0,*77
1531181250.68,49441,19.19,74124.3,1.05,-6.55,-6.27,0,*70
1531181251.89,49442,19.19,74124.5,1.05,-6.63,-6.31,0,*71
1531181253.11,49443,19.19,74124.0,1.07,-6.43,-6.09,0,*7B
1531181254.31,49444,19.13,74120.8,1.05,-6.31,-5.97,0,*7F
1531181255.55,49445,19.19,74124.5,1.05,-6.27,-5.85,0,*7A
1531181256.77,49446,19.19,74126.5,1.07,-6.55,-6.13,0,*72
1531181257.99,49447,19.13,74120.8,1.05,-6.43,-6.23,0,*75
1531181259.19,49448,19.13,74122.5,1.05,-6.55,-6.31,0,*7E
1531181260.41,49449,19.19,74124.3,1.05,-6.55,-6.27,0,*78
1531181261.63,49450,19.13,74120.3,1.07,-6.77,-6.39,0,*7D
1531181262.85,49451,19.19,74126.0,1.05,-6.55,-6.23,0,*75
1531181264.06,49452,19.19,74126.3,1.05,-6.55,-6.23,0,*76
1531181265.3,49453,19.19,74126.0,1.05,-6.63,-6.23,0,*72
1531181266.51,49454,19.19,74124.0,1.05,-6.63,-6.31,0,*76
1531181267.73,49455,19.13,74120.0,1.05,-6.63,-6.31,0,*77
1531181268.92,49456,19.19,74124.3,1.05,-6.77,-6.39,0,*79
1531181270.15,49457,19.19,74124.0,1.03,-6.81,-6.47,0,*7E
1531181271.35,49458,19.19,74126.8,1.05,-6.77,-6.43,0,*7A
1531181272.54,49459,19.19,74124.0,1.05,-6.69,-6.43,0,*74
1531181273.77,49460,19.19,74124.8,1.05,-6.63,-6.23,0,*72
1531181275.01,49461,19.19,74124.0,1.03,-6.59,-6.27,0,*78
1531181276.23,49462,19.19,74124.0,1.03,-6.73,-6.35,0,*70
1531181277.45,49463,19.19,74124.3,1.03,-6.81,-6.43,0,*7D
1531181278.7,49464,19.19,74126.0,1.03,-6.97,-6.55,0,*7A
1531181279.92,49465,19.19,74126.3,1.03,-6.73,-6.43,0,*76
1531181281.13,49466,19.19,74124.8,1.03,-6.47,-6.01,0,*74
1531181282.35,49467,19.19,74124.0,1.01,-6.31,-5.93,0,*7E
1531181283.57,49468,19.19,74124.8,1.03,-6.43,-6.05,0,*7A
1531181284.81,49469,19.19,74124.3,1.03,-6.47,-6.19,0,*72
1531181286.0,49470,19.19,74126.3,1.05,-6.51,-6.13,0,*71
1531181287.22,49471,19.13,74124.0,1.01,-6.59,-6.27,0,*7B
1531181288.45,49472,19.13,74122.0,1.03,-6.81,-6.47,0,*79
1531181289.69,49473,19.19,74124.5,1.03,-6.93,-6.55,0,*78
1531181290.91,49474,19.19,74124.0,1.01,-6.97,-6.55,0,*79
1531181292.11,49475,19.13,74124.3,1.01,-6.81,-6.43,0,*78
1531181293.35,49476,19.19,74124.3,1.03,-6.59,-6.27,0,*7E
1531181294.57,49477,19.13,74122.8,1.03,-6.73,-6.35,0,*74
1531181295.79,49478,19.19,74124.8,1.03,-6.85,-6.47,0,*77
1531181297.04,49479,19.13,74122.0,1.03,-6.93,-6.55,0,*72
1531181298.23,49480,19.19,74124.0,1.01,-6.73,-6.43,0,*7F
1531181299.43,49481,19.19,74124.8,1.01,-6.81,-6.47,0,*77
1531181300.62,49482,19.19,74124.8,1.01,-6.85,-6.47,0,*70
1531181301.82,49483,19.13,74120.8,1.01,-6.73,-6.43,0,*7C
1531181303.01,49484,19.13,74120.8,1.01,-6.55,-6.13,0,*7A
1531181304.2,49485,19.19,74124.8,1.01,-6.69,-6.31,0,*74
1531181305.39,49486,19.19,74122.3,1.01,-6.69,-6.31,0,*77
1531181306.64,49487,19.19,74124.5,1.03,-6.59,-6.27,0,*70
1531181307.86,49488,19.13,74122.8,1.01,-6.59,-6.27,0,*7D
1531181309.1,49489,19.13,74122.3,1.03,-6.59,-6.27,0,*7E
1531181310.3,49490,19.19,74124.5,1.01,-6.81,-6.31,0,*76
1531181311.5,49491,19.19,74124.0,1.01,-6.81,-6.31,0,*77
1531181312.69,49492,19.19,74124.8,1.01,-6.73,-6.43,0,*7C
1531181313.91,49493,19.13,74122.0,0.99,-6.73,-6.35,0,*4C